Location: City of Moscow
(46.7306°N, 116.9989°W)
Time: 02:56:09
(UTC+00:00)

ACS3 Solar Sail - Pass Details

Date: 22 February 2026
Orbit: 889 x 972 km, 97.2° (Epoch: 6 March)

Event Time Altitude Azimuth Distance (km) Brightness Sun altitude
Rises 11:09:47 0° 2° (N) 3,513 5.1 -36.0°
Reaches altitude 10° 11:12:34 10° 350° (N) 2,566 4.1 -35.5°
Enters shadow 11:12:48 11° 349° (NNW) 2,496 4.1 -35.5°
